Regional Weather Roundup
Issued by NWS

Home | Current Version | Previous Version | Graphics & Text | Print | Product List | Glossary On
Versions: 1 2 3 4 5 6 7 8 9 10 11 12 13 14 15 16 17 18 19 20 21 22 23 24 25 26 27 28 29 30 31 32 33 34 35 36 37 38 39 40 41 42 43 44 45 46 47 48 49 50
000
ASUS45 KCYS 262010
RWRWY

WYOMING REGIONAL WEATHER ROUNDUP
NATIONAL WEATHER SERVICE CHEYENNE WY
200 PM MDT SAT MAY 26 2018

NOTE:  "FAIR" INDICATES FEW OR NO CLOUDS BELOW 12,000 FEET
WITH NO SIGNIFICANT WEATHER AND/OR OBSTRUCTIONS TO VISIBILITY.

WYZ001-262100-
YELLOWSTONE NATIONAL PARK

CITY           SKY/WX    TMP DP  RH WIND       PRES   REMARKS
LK YELLOWSTONE   N/A     63  27  25 CALM      30.03F
W YELLOWSTONE  NOT AVBL

$$
WYZ002>013-054>058-071-098>099-262100-
NORTHERN WYOMING

CITY           SKY/WX    TMP DP  RH WIND       PRES   REMARKS
JACKSON        FAIR      73  36  25 VRB7      29.91F
CODY           FAIR      79  47  32 SE8       29.83F
GREYBULL       FAIR      85  50  29 S10       29.74F
WORLAND        FAIR      84  46  26 NW5       29.75F
SHERIDAN       FAIR      81  61  50 NW9       29.76F
BUFFALO        FAIR      81  53  37 N14       29.81R
GILLETTE       FAIR      90  36  14 SW18G26   29.77S
NEWCASTLE      FAIR      82  43  24 S14G21    29.82F

$$
WYZ014>020-022>026-101>103-262100-
CENTRAL WYOMING

CITY           SKY/WX    TMP DP  RH WIND       PRES   REMARKS
BIG PINEY      FAIR      76  23  14 SW12G17   29.93F
PINEDALE       FAIR      73  21  14 S15G24    29.94F
DUBOIS         FAIR      68  34  28 SE14      29.95F
LANDER         FAIR      81  38  21 S21G26    29.82F
RIVERTON       FAIR      82  29  14 S12G21    29.83F
CASPER         FAIR      86  27  11 S9        29.85F
DOUGLAS        FAIR      87  40  19 SE9       29.84F

$$
WYZ021-027>030-104>119-262100-
SOUTHERN WYOMING

CITY           SKY/WX    TMP DP  RH WIND       PRES   REMARKS
EVANSTON       FAIR      69  27  20 VRB3      29.93F
FORT BRIDGER   FAIR      76  21  12 SE5G28    29.94F
ROCK SPRINGS   FAIR      78  12   8 S20G31    29.92F
DIXON          FAIR      83  13   7 S17G25    29.97F
RAWLINS        FAIR      84  15   7 S15G38    29.96F
SARATOGA       FAIR      82  14   7 S16G26    29.98F
LARAMIE        FAIR      83  22  10 S13G26    29.98F
CHEYENNE       FAIR      83  35  18 SE16      29.95F
TORRINGTON     FAIR      88  48  25 CALM      29.80F
PINE BLUFFS    FAIR      86  43  22 SE9       29.89F

$$



USA.gov is the U.S. government's official web portal to all federal, state and local government web resources and services.